Flag for Switzerland Weather past 2 weeks in Liestal, Basel-Land, Switzerland

Now
61 °F

Clear.


Feels Like: 61 °F
Forecast: 51 / 82 °F
Wind: 3 mph from North

Location: Bale-Mulhouse

Current Time: Aug 2, 2015 at 12:52:50 AM

Latest Report: Aug 2, 2015 at 12:00 AM


Visibility: 10 mi

Pressure: 30.07 "Hg

Humidity: 100%

Dew point: 61 °F

Location of LiestalLocation

Historic Weather in Liestal — Graph

°F

Liestal temperature yesterday

Maximum temperature yesterday: 70 °F (at 2:30 PM)
Minimum temperature yesterday: 54 °F (at 2:30 AM)
Average temperature yesterday: 62 °F

Past Weeks' High & Low Weather Summary

 TemperatureHumidityPressure
High93 °F (Jul 21, 5:00 PM)100% (Jul 26, 5:00 AM)30.15 "Hg (Jul 26, 5:00 AM)
Low46 °F (Jul 26, 6:00 AM)26% (Jul 21, 7:30 PM)29.71 "Hg (Jul 24, 5:30 PM)
Average70 °F66%29.96 "Hg
* Reported Jul 17 11:00 PM — Aug 1 11:00 PM, Liestal, Weather by CustomWeather, © 2015

Note: Actual official high and low records may vary slightly from our data, if they occured in-between our weather recording intervals... More about our weather records

Advertising

Liestal weather history for previous 24 hours

 ConditionsComfort  
Time TempWeatherWind HumidityBarometerVisibility
11:00 PM
Sat, Aug 1
63 °FClear.2 mph94%30.07 "Hg10 mi
10:30 PM63 °FClear.2 mph94%30.07 "Hg10 mi
10:00 PM63 °FLight rain. Low clouds.2 mph94%30.04 "HgN/A
9:30 PM63 °FLight rain. Low clouds.3 mph94%30.04 "HgN/A
9:00 PM64 °FLight rain. Low clouds.No wind88%30.04 "HgN/A
8:30 PM64 °FLight rain. Low clouds.2 mph83%30.04 "HgN/A
8:00 PM64 °FPartly sunny.5 mph83%30.01 "HgN/A
7:30 PM66 °FPartly sunny.7 mph78%30.01 "HgN/A
7:00 PM66 °FScattered showers. Broken clouds.5 mph78%30.01 "HgN/A
6:30 PM68 °FSprinkles. Partly sunny.3 mph73%30.01 "HgN/A
6:00 PM68 °FScattered showers. Partly sunny.3 mph73%30.01 "HgN/A
5:00 PM68 °FScattered showers. Broken clouds.3 mph69%30.01 "HgN/A
4:30 PM68 °FScattered showers. Partly sunny.5 mph69%30.01 "HgN/A
4:00 PM68 °FPartly sunny.3 mph69%30.01 "HgN/A
3:30 PM70 °FLight rain. Partly sunny.3 mph64%29.98 "HgN/A
3:00 PM70 °FPartly sunny.5 mph64%30.01 "HgN/A
2:30 PM70 °FPartly sunny.3 mph60%30.01 "HgN/A
2:00 PM68 °FBroken clouds.3 mph64%30.01 "HgN/A
1:30 PM68 °FBroken clouds.5 mph69%30.01 "HgN/A
1:00 PM68 °FBroken clouds.5 mph69%30.01 "HgN/A
12:30 PM66 °FBroken clouds.7 mph78%30.01 "HgN/A
12:00 PM64 °FLight rain. Partly sunny.7 mph88%30.01 "HgN/A
11:30 AM63 °FLight rain. Partly sunny.7 mph88%30.01 "HgN/A
11:00 AM61 °FLight rain. Partly sunny.7 mph94%30.01 "HgN/A
10:30 AM61 °FLight rain. Partly sunny.7 mph88%30.01 "HgN/A
10:00 AM61 °FLight rain. Broken clouds.8 mph88%30.01 "HgN/A
9:30 AM59 °FLight rain. Broken clouds.6 mph100%30.01 "HgN/A
9:00 AM59 °FLight rain. Overcast.5 mph94%29.98 "HgN/A
8:30 AM59 °FLight rain. Clear.6 mph94%29.98 "HgN/A
8:00 AM57 °FLight rain. Clear.6 mph94%29.98 "HgN/A
7:30 AM57 °FLight rain. Clear.5 mph88%29.98 "HgN/A
7:00 AM57 °FLight rain. Clear.2 mph88%29.95 "HgN/A
6:30 AM57 °FLight rain. Clear.3 mph82%29.95 "HgN/A
6:00 AM57 °FClear.3 mph77%29.92 "Hg10 mi
5:30 AM55 °FClear.No wind82%29.92 "Hg10 mi
5:00 AM55 °FLight rain. Clear.1 mph82%29.92 "HgN/A
4:30 AM55 °FClear.2 mph88%29.89 "Hg10 mi
4:00 AM55 °FClear.3 mph82%29.89 "Hg10 mi
3:30 AM54 °FClear.3 mph88%29.89 "Hg10 mi
3:00 AM54 °FClear.1 mph88%29.89 "Hg10 mi
2:30 AM54 °FClear.2 mph82%29.92 "Hg10 mi
2:00 AM55 °FClear.1 mph77%29.92 "Hg10 mi
1:30 AM55 °FClear.3 mph77%29.92 "Hg10 mi
1:00 AM57 °FPassing clouds.5 mph72%29.92 "HgN/A
12:30 AM59 °FClear.3 mph68%29.92 "Hg10 mi
Weather by CustomWeather, © 2015

See weather overviewHow to use our weather pages